Weather History for KCNB - March, 2013

Change the Weather History Date:

Friday, March 8, 2013

  Actual Average Record
Temperature  
Mean Temperature 21 °F -  
Max Temperature 32 °F - - ()
Min Temperature 10 °F - - ()
Degree Days  
Heating Degree Days 44    
Moisture  
Dew Point 21 °F    
Average Humidity 92    
Maximum Humidity 100    
Minimum Humidity 81    
Precipitation  
Precipitation 0.09 in - - ()
Sea Level Pressure  
Sea Level Pressure 30.15 in    
Wind  
Wind Speed 3 mph (ENE)    
Max Wind Speed 12 mph    
Max Gust Speed -    
Visibility 4 miles    
Events      
T = Trace of Precipitation, MM = Missing Value Source: NWS Daily Summary

Daily Weather History Graph

Daily Weather History Graph

Search for Another Location

Airport or City:

Trip Planner

Search our weather history database for the weather conditions in past years. The results will help you decide how hot, cold, wet, or windy it might be!

Date:

Astronomy

Mar. 08, 2013 Rise Set
Actual Time 6:49 AM CST 6:22 PM CST
Civil Twilight 6:20 AM CST 6:51 PM CST
Nautical Twilight 5:46 AM CST 7:25 PM CST
Astronomical Twilight 5:12 AM CST 7:59 PM CST
Moon 4:41 AM CST (3/8) 3:12 PM CST (3/8)
Length of Visible Light 12h 30m
Length of Day
11h 32m
Waning Crescent, 11% of the Moon is Illuminated
Mar 8
Waning Crescent
Mar 11
New
Mar 19
First Quarter
Mar 27
Full
Apr 2
Last Quarter

Hourly Weather History & Observations

Time (CST) Temp. Windchill Dew Point Humidity Pressure Visibility Wind Dir Wind Speed Gust Speed Precip Events Conditions
12:16 AM 17.6 °F 12.3 °F 16.5 °F 96% 30.19 in 5.0 mi ESE 3.5 mph - N/A   Clear
12:36 AM 17.6 °F - 16.5 °F 96% 30.20 in 7.0 mi Calm Calm - N/A   Clear
12:56 AM 16.3 °F - 15.4 °F 96% 30.20 in 5.0 mi Calm Calm - N/A   Clear
1:15 AM 15.6 °F - 14.5 °F 95% 30.20 in 5.0 mi Calm Calm - N/A   Clear
1:36 AM 15.8 °F - 14.9 °F 96% 30.21 in 4.0 mi Calm Calm - N/A   Clear
1:56 AM 12.7 °F - 11.3 °F 94% 30.21 in 4.0 mi Calm Calm - N/A   Clear
2:16 AM 12.4 °F 6.3 °F 10.8 °F 93% 30.21 in 5.0 mi WNW 3.5 mph - N/A   Clear
2:36 AM 12.4 °F - 11.1 °F 95% 30.21 in 5.0 mi Calm Calm - N/A   Clear
2:56 AM 12.0 °F 4.1 °F 10.4 °F 93% 30.21 in 5.0 mi NW 4.6 mph - N/A   Clear
3:16 AM 11.3 °F - 9.9 °F 94% 30.20 in 5.0 mi Calm Calm - N/A   Clear
3:36 AM 12.0 °F - 10.6 °F 94% 30.20 in 5.0 mi Calm Calm - N/A   Clear
3:56 AM 12.6 °F - 11.1 °F 94% 30.20 in 4.0 mi Calm Calm - N/A   Scattered Clouds
4:16 AM 12.9 °F - 11.7 °F 95% 30.21 in 5.0 mi Calm Calm - N/A   Mostly Cloudy
4:36 AM 11.8 °F - 10.2 °F 93% 30.20 in 5.0 mi Calm Calm - N/A   Scattered Clouds
4:56 AM 12.7 °F - 11.3 °F 94% 30.21 in 5.0 mi Calm Calm - N/A   Clear
5:16 AM 13.1 °F - 11.7 °F 94% 30.22 in 5.0 mi Calm Calm - N/A   Clear
5:36 AM 13.1 °F - 11.7 °F 94% 30.22 in 5.0 mi Calm Calm - N/A   Clear
5:56 AM 12.7 °F - 11.1 °F 93% 30.22 in 5.0 mi Calm Calm - N/A   Clear
6:16 AM 12.2 °F - 10.8 °F 94% 30.22 in 5.0 mi Calm Calm - N/A   Clear
6:36 AM 12.2 °F - 10.6 °F 93% 30.22 in 5.0 mi Calm Calm - N/A   Clear
6:56 AM 12.2 °F - 10.9 °F 95% 30.22 in 4.0 mi Calm Calm - N/A   Clear
7:16 AM 11.5 °F - 9.7 °F 92% 30.22 in 4.0 mi Calm Calm - N/A   Clear
7:36 AM 10.6 °F - 8.6 °F 92% 30.22 in 4.0 mi Calm Calm - N/A   Clear
7:56 AM 11.7 °F - 10.2 °F 94% 30.22 in 5.0 mi Calm Calm - N/A   Clear
8:16 AM 13.3 °F - 12.0 °F 95% 30.22 in 4.0 mi Calm Calm - N/A   Clear
8:36 AM 14.7 °F - 13.6 °F 95% 30.23 in 3.0 mi Calm Calm - N/A   Clear
8:56 AM 15.8 °F - 14.5 °F 95% 30.22 in 4.0 mi Calm Calm - N/A   Clear
9:16 AM 18.1 °F - 17.1 °F 96% 30.21 in 4.0 mi Calm Calm - N/A   Clear
9:36 AM 18.7 °F - 17.8 °F 96% 30.21 in 4.0 mi Calm Calm - N/A   Clear
9:56 AM 20.8 °F - 19.4 °F 94% 30.21 in 5.0 mi Calm Calm - N/A   Clear
10:16 AM 22.8 °F - 19.6 °F 87% 30.20 in 5.0 mi Calm Calm - N/A   Clear
10:36 AM 23.7 °F - 20.1 °F 86% 30.20 in 4.0 mi Calm Calm - N/A   Clear
10:56 AM 24.8 °F 20.5 °F 20.8 °F 85% 30.20 in 5.0 mi NE 3.5 mph - N/A   Clear
11:16 AM 25.7 °F 21.5 °F 21.7 °F 85% 30.20 in 5.0 mi NE 3.5 mph - N/A   Clear
11:36 AM 26.8 °F 21.4 °F 22.1 °F 83% 30.19 in 5.0 mi ENE 4.6 mph - N/A   Haze
11:56 AM 28.0 °F 22.8 °F 23.2 °F 82% 30.18 in 5.0 mi ENE 4.6 mph - N/A   Haze
12:16 PM 28.6 °F 24.8 °F 23.7 °F 82% 30.19 in 4.0 mi East 3.5 mph - N/A   Clear
12:36 PM 28.9 °F 23.9 °F 24.1 °F 82% 30.18 in 4.0 mi NE 4.6 mph - N/A   Haze
12:56 PM 28.8 °F 25.0 °F 24.3 °F 83% 30.19 in 4.0 mi ENE 3.5 mph - N/A   Haze
1:16 PM 28.6 °F 23.5 °F 24.6 °F 85% 30.18 in 4.0 mi NNE 4.6 mph - N/A   Clear
1:36 PM 29.8 °F 24.9 °F 24.8 °F 81% 30.18 in 4.0 mi NNE 4.6 mph - N/A   Haze
1:56 PM 29.8 °F 24.9 °F 24.8 °F 81% 30.17 in 4.0 mi NNE 4.6 mph - N/A   Haze
2:16 PM 29.3 °F 22.3 °F 25.3 °F 85% 30.15 in 4.0 mi NNE 6.9 mph - N/A   Clear
2:36 PM 29.3 °F 22.3 °F 25.5 °F 86% 30.15 in 3.0 mi NE 6.9 mph - N/A   Clear
2:56 PM 29.3 °F 21.5 °F 25.5 °F 86% 30.14 in 3.0 mi NE 8.1 mph - N/A   Clear
3:16 PM 28.9 °F 21.1 °F 25.3 °F 86% 30.15 in 4.0 mi NNE 8.1 mph - N/A   Clear
3:36 PM 29.8 °F 20.9 °F 25.7 °F 85% 30.14 in 4.0 mi ENE 10.4 mph - N/A   Clear
3:56 PM 30.2 °F 21.9 °F 25.7 °F 83% 30.13 in 4.0 mi ENE 9.2 mph - N/A   Haze
4:16 PM 29.7 °F 20.7 °F 25.5 °F 85% 30.12 in 4.0 mi NE 10.4 mph - N/A   Clear
4:36 PM 29.1 °F 20.0 °F 25.3 °F 86% 30.12 in 4.0 mi ENE 10.4 mph - N/A   Clear
4:56 PM 29.3 °F 19.6 °F 25.9 °F 87% 30.12 in 4.0 mi ENE 11.5 mph - N/A   Clear
5:16 PM 29.1 °F 20.0 °F 25.7 °F 87% 30.12 in 3.0 mi ENE 10.4 mph - N/A   Clear
5:36 PM 28.4 °F 19.7 °F 25.9 °F 90% 30.11 in 3.0 mi ENE 9.2 mph - N/A   Clear
5:56 PM 28.6 °F 19.3 °F 26.4 °F 92% 30.10 in 3.0 mi ENE 10.4 mph - N/A   Mostly Cloudy
6:16 PM 28.9 °F 20.4 °F 26.6 °F 91% 30.10 in 3.0 mi East 9.2 mph - N/A   Mostly Cloudy
6:36 PM 28.9 °F 20.4 °F 26.6 °F 91% 30.08 in 4.0 mi ENE 9.2 mph - N/A   Mostly Cloudy
6:56 PM 29.3 °F 20.8 °F 27.1 °F 92% 30.07 in 5.0 mi East 9.2 mph - N/A   Overcast
7:16 PM 29.3 °F 22.3 °F 27.3 °F 92% 30.06 in 4.0 mi East 6.9 mph - N/A   Overcast
7:36 PM 29.3 °F 23.2 °F 27.5 °F 93% 30.06 in 4.0 mi East 5.8 mph - N/A   Overcast
7:56 PM 30.0 °F 25.2 °F 28.2 °F 93% 30.06 in 3.0 mi East 4.6 mph - N/A   Overcast
8:16 PM 30.2 °F 26.7 °F 28.9 °F 95% 30.06 in 3.0 mi East 3.5 mph - N/A   Overcast
8:36 PM 30.6 °F 23.8 °F 29.3 °F 95% 30.04 in 3.0 mi ENE 6.9 mph - N/A   Overcast
8:56 PM 31.1 °F 23.7 °F 30.2 °F 96% 30.03 in 3.0 mi East 8.1 mph - N/A   Overcast
9:16 PM 31.5 °F 23.5 °F 30.4 °F 96% 30.03 in 3.0 mi East 9.2 mph - 0.01 in   Overcast
9:36 PM 31.8 °F 23.9 °F 30.9 °F 96% 30.02 in 2.5 mi East 9.2 mph - 0.01 in   Overcast
9:56 PM 32.0 °F 28.7 °F 31.1 °F 96% 30.03 in 2.0 mi ESE 3.5 mph - 0.04 in   Overcast
10:16 PM 32.0 °F 27.5 °F 31.5 °F 98% 30.02 in 2.0 mi East 4.6 mph - 0.01 in   Overcast
10:36 PM 32.0 °F 27.5 °F 31.5 °F 98% 30.01 in 2.5 mi East 4.6 mph - 0.01 in   Overcast
10:56 PM 32.0 °F 28.7 °F 31.6 °F 99% 30.00 in 2.0 mi ESE 3.5 mph - 0.01 in   Overcast
11:16 PM 32.0 °F 26.4 °F 31.8 °F 99% 29.99 in 1.5 mi ESE 5.8 mph - 0.01 in   Overcast
11:36 PM 32.0 °F 27.5 °F 32.0 °F 100% 29.97 in 1.2 mi ESE 4.6 mph - 0.03 in   Overcast
11:56 PM 32.0 °F 27.5 °F 32.0 °F 100% 29.96 in 1.2 mi ESE 4.6 mph - 0.04 in   Overcast